• Processing (Info)

  • MPEC 2014-R32 : 2014 QW432

    The following Minor Planet Electronic Circular may be linked-to from your own Web pages, but must not otherwise be redistributed electronically.

    A form allowing access to any MPEC is at the bottom of this page.


    Read MPEC 2014-R31 Read MPEC 2014-R33


    M.P.E.C. 2014-R32                                Issued 2014 Sept. 4, 15:18 UT
    
         The Minor Planet Electronic Circulars contain information on unusual
             minor planets and routine data on comets.  They are published
       on behalf of Commission 20 of the International Astronomical Union by the
              Minor Planet Center, Smithsonian Astrophysical Observatory,
                              Cambridge, MA 02138, U.S.A.
    
                 Prepared using the Tamkin Foundation Computer Network
    
                                  MPC@CFA.HARVARD.EDU
                URL https://www.minorplanetcenter.net/    ISSN 1523-6714
    
                                      2014 QW432
    
    Observations:
         K14Qh2W* C2014 08 27.45254 22 59 26.729-35 36 13.87         20.3 wLER032F51
         K14Qh2W  C2014 08 27.46175 22 59 23.476-35 35 45.98         21.3 wLER032F51
         K14Qh2W  C2014 08 27.47100 22 59 20.207-35 35 17.67         20.6 wLER032F51
         K14Qh2W KC2014 08 31.32094 22 38 03.93 -32 04 51.1                oER032291
         K14Qh2W KC2014 08 31.32193 22 38 03.60 -32 04 47.5          19.5 RoER032291
         K14Qh2W KC2014 08 31.32291 22 38 03.26 -32 04 44.0          18.9 RoER032291
         K14Qh2W  C2014 09 02.40248 22 27 09.339-30 00 08.54         19.8 wLER032F51
         K14Qh2W  C2014 09 02.41304 22 27 05.946-29 59 29.80         20.4 wLER032F51
         K14Qh2W  C2014 09 02.42360 22 27 02.567-29 58 50.88         20.3 wLER032F51
         K14Qh2W  C2014 09 02.43415 22 26 59.184-29 58 11.93         20.0 wLER032F51
         K14Qh2W |C2014 09 03.23146 22 22 56.57 -29 08 28.4          20.3 VuER032807
         K14Qh2W |C2014 09 03.23664 22 22 54.95 -29 08 09.4          20.3 VuER032807
         K14Qh2W |C2014 09 03.24157 22 22 53.41 -29 07 50.9          20.3 VuER032807
    
    Observer details:
    291 LPL/Spacewatch II.  Observer T. H. Bressi.  1.8-m f/2.7 reflector + CCD.
    807 Cerro Tololo.  Observers T. Linder, R. Holmes.  Measurers T. Linder,
        R. Holmes, K. Baker.  0.41-m f/11 Ritchey-Chretien + CCD.
    F51 Pan-STARRS 1, Haleakala.  Observers N. Primak, A. Schultz, T. Goggia,
        M. Willman.  Measurers B. Bolin, K. Chambers, S. Chastel, L. Denneau,
        H. Flewelling, M. Huber, E. Magnier, E. Schunova, R. Wainscoat, C. Waters.
        1.8-m Ritchey-Chretien + CCD.
    
    Orbital elements:
    2014 QW432                                               Earth MOID = 0.2148 AU
    Epoch 2014 Dec. 9.0 TT = JDT 2457000.5                  MPC
    M 199.25474              (2000.0)            P               Q
    n   0.70505005     Peri.  216.49202     -0.91150847     +0.39576883
    a   1.2502286      Node   345.50417     -0.18217769     -0.63243245
    e   0.0422044      Incl.   26.55175     -0.36873242     -0.66588004
    P   1.40           H   21.4           G   0.15           U   7
    Residuals in seconds of arc
    140827 F51  0.0   0.0     140831 291  0.1-  0.1-    140903 807  0.2+  0.0
    140827 F51  0.0   0.1-    140902 F51  0.0   0.1+    140903 807  0.2+  0.5-
    140827 F51  0.0   0.1+    140902 F51  0.1-  0.0     140903 807  0.2+  0.6-
    140831 291  0.1+  0.3-    140902 F51  0.0   0.1+
    140831 291  0.1+  0.2-    140902 F51  0.0   0.2+
    
    Ephemeris:
    2014 QW432               a,e,i = 1.25, 0.04, 27                  q = 1.1975
    Date    TT    R. A. (2000) Decl.     Delta      r     Elong.  Phase     V
    2014 08 05    00 48 58.0 -45 39 23   0.3808  1.2705   124.7    41.0    21.4
    ...
    2014 08 20    23 41 34.7 -40 48 35   0.3150  1.2790   143.5    28.1    20.7
    ...
    2014 08 28    22 56 21.7 -35 07 47   0.2966  1.2831   153.8    20.4    20.3
    ...
    2014 09 03    22 24 07.2 -29 22 56   0.2943  1.2860   157.7    17.3    20.2
    2014 09 04    22 19 08.9 -28 20 20   0.2950  1.2864   157.7    17.3    20.2
    2014 09 05    22 14 19.2 -27 16 48   0.2959  1.2869   157.6    17.4    20.2
    ...
    2014 09 11    21 48 40.0 -20 47 45   0.3078  1.2895   153.4    20.4    20.4
    ...
    2014 09 19    21 23 41.4 -12 37 28   0.3388  1.2927   143.5    27.6    20.8
    ...
    2014 10 04    21 01 07.3 -00 54 33   0.4295  1.2976   125.4    38.9    21.7
    
    A. U. Tomatic                (C) Copyright 2014 MPC           M.P.E.C. 2014-R32
    

    Read MPEC 2014-R31 Read MPEC 2014-R33


    MPEC number:

    Enter an MPEC number in one of the following forms:

    • 1997-B01 (the full form)
    • J97B01 (the packed version of the full form)
    • B01 (the abbreviated form)